Regional Weather Roundup
Issued by NWS Newport/Morehead, NC

Current Version | Previous Version | Text Only | Print | Product List | Glossary Off
Versions: 1 2 3 4 5 6 7 8 9 10 11 12 13 14 15 16 17 18 19 20 21 22 23 24 25 26 27 28 29 30 31 32 33 34 35 36 37 38 39 40 41 42 43 44 45 46 47 48 49 50
000 ASUS42 KMHX 182024 RWRMHX WEATHER ROUNDUP FOR EASTERN NORTH CAROLINA NATIONAL WEATHER SERVICE NEWPORT/MOREHEAD CITY NC 300 PM EST WED JAN 18 2017 NOTE: "FAIR" INDICATES FEW OR NO CLOUDS BELOW 12,000 FEET WITH NO SIGNIFICANT WEATHER AND/OR OBSTRUCTIONS TO VISIBILITY NCZ015>017-031-032-045>047-102-103-182100- NORTH COAST CITY SKY/WX TMP DP RH WIND PRES REMARKS EDENTON PTSUNNY 58 48 67 NE12G17 29.94R ELIZABETH CITY PTSUNNY 55 46 71 N13 29.94R KITTY HAWK NOT AVBL MANTEO CLOUDY 52 46 82 NE20G30 29.93R $$ NCZ045>047-081-094-103-104-182100- CENTRAL COAST CITY SKY/WX TMP DP RH WIND PRES REMARKS FRISCO MOSUNNY 56 49 77 N8 29.89R $$ NCZ095-097-098-100-101-182100- SOUTHERN COAST CITY SKY/WX TMP DP RH WIND PRES REMARKS BEAUFORT MOSUNNY 72 55 55 NW14 29.88R CEDAR ISLAND NOT AVBL JACKSONVILLE MOSUNNY 71 47 42 NW22G35 29.90R PINEY ISLAND MOCLDY N/A N/A N/A NW17G25 29.88R WILMINGTON SUNNY 74 55 51 NW14 29.91S $$ NCZ011>013-027>030-043-044-078>080-089-090>093-098-182100- COASTAL PLAIN CITY SKY/WX TMP DP RH WIND PRES REMARKS AHOSKIE N/A 65 39 39 NW7 29.93R CLINTON SUNNY 73 44 35 NW15G25 29.94R ELIZABETHTOWN MOSUNNY 75 45 34 NW12G21 29.93R GOLDSBORO SUNNY 70 38 30 NW14G24 29.92R GREENVILLE SUNNY 70 36 28 NW8G20 29.95R HAVELOCK MOSUNNY 73 42 32 NW25G38 29.90R KENANSVILLE SUNNY 72 41 33 NW14 29.93R KINSTON SUNNY 70 34 26 NW22G30 29.93R NEW BERN SUNNY 71 39 31 NW17G30 29.90R RICHLANDS SUNNY 73 44 35 NW12G20 29.92R ROCKY MOUNT SUNNY 67 38 34 NW15G24 29.95R WASHINGTON MOSUNNY 69 40 34 NW12G21 29.91R WHITEVILLE MOSUNNY 75 55 50 N7 29.93F $$ AMZ130-135-150-152-154-156-158-170-250-252-270-ANZ085-086-088-633-658-670-182100- MARINE OBSERVATIONS STATION/POSITION TIME TEMP WIND PRES WAVE SWELL AIR SEA DIR/SP/G HT/PER HT/PER (UTC) (F) (DEG/KT/KT) (MB) (FT/S) (FT/S) CHESAPEAKE LIGHT NOT AVBL 64 E VA BEACH 1950 52 57 350/ 23/ 31 1012.0 4/ 4 2/ 7 DUCK 2000 49 46 20/ 22/ 25 1012.7 2 E DUCK 2000 45 N/A 3/ 3 OREGON INLET 1954 51 51 360/ 16/ 25 1012.7 13E OREGON INLT NOT AVBL HATTERAS CG 2000 54 54 360/ 21/ 24 1012.0 DIAMOND BUOY 1950 63 72 320/ 21/ 31 1010.7 7/ 7 3/17 CAPE LOOKOUT 2000 62 260/ 14/ 17 1011.7 BEAUFORT LAB 2000 69 51 300/ 9/ 11 1010.9 30 SE NEW RVR IN 2008 61 62 280/ 14/ 16 1013.0 30 SE NEW RVR IN 1943 62 N/A 6/ 6 27 SE WRIGHTSVLE 2008 65 68 240/ 16/ 21 1012.6 5 SE WRIGHTSVLE NOT AVBL 225 S CAPE HAT 1950 73 72 270/ 17/ 21 1013.9 7/ 6 2/ 9 41 SE CHARLESTON 1950 68 72 250/ 23/ 27 1014.8 4/ 5 2/ 8 $$

USA.gov is the U.S. government's official web portal to all federal, state and local government web resources and services.